Home > Weather > Poitiers > Past weeks

Flag for France Weather for the Past 2 Weeks in Poitiers, France

Now
46 °F

Light rain. Fog.


Feels Like: 41 °F
Forecast: 40 / 49 °F
Wind: 12 mph from South

Location: Poitiers Airport

Current Time: Feb 13, 2016 at 6:07:51 AM

Latest Report: Feb 13, 2016 at 5:30 AM


Visibility: 3 mi

Pressure: 29.27 "Hg

Humidity: 93%

Dew point: 45 °F

Location of PoitiersLocation

Historic Weather in Poitiers — Graph

°F

Poitiers Temperature Yesterday

Maximum temperature yesterday: 54 °F (at 1:00 PM)
Minimum temperature yesterday: 41 °F (at 12:00 AM)
Average temperature yesterday: 47 °F

High & Low Weather Summary for the Past Weeks

 TemperatureHumidityPressure
High59 °F (Feb 6, 2:30 PM)100% (Jan 29, 5:00 AM)30.60 "Hg (Jan 29, 5:00 AM)
Low30 °F (Feb 4, 5:30 AM)54% (Feb 3, 3:30 PM)29.27 "Hg (Feb 12, 9:30 AM)
Average47 °F87%30.02 "Hg
* Reported Jan 29 5:00 AM — Feb 13 5:00 AM, Poitiers, Weather by CustomWeather, © 2016

Note: Actual official high and low records may vary slightly from our data, if they occured in-between our weather recording intervals... More about our weather records

Advertising

Poitiers Weather History for the Previous 24 Hours

 ConditionsComfort  
Time TempWeatherWind HumidityBarometerVisibility
5:00 AM
Sat, Feb 13
46 °FRain. Mostly cloudy.13 mph93%29.30 "Hg4 mi
4:30 AM45 °FLight rain. Mostly cloudy.12 mph100%29.30 "Hg5 mi
4:00 AM45 °FQuite cool.9 mph93%29.33 "Hg5 mi
3:30 AM45 °FQuite cool.9 mph93%29.36 "Hg6 mi
3:00 AM43 °FQuite cool.9 mph100%29.39 "Hg6 mi
2:30 AM43 °FQuite cool.9 mph100%29.42 "Hg6 mi
2:00 AM43 °FOvercast.9 mph100%29.42 "Hg6 mi
1:30 AM41 °FMostly cloudy.8 mph100%29.45 "Hg6 mi
1:00 AM41 °FPartly cloudy.9 mph93%29.45 "Hg5 mi
12:30 AM43 °FOvercast.10 mph93%29.45 "Hg6 mi
12:00 AM45 °FQuite cool.10 mph93%29.45 "Hg6 mi
11:30 PM
Fri, Feb 12
43 °FPassing clouds.10 mph93%29.45 "Hg6 mi
11:00 PM41 °FQuite cool.10 mph100%29.45 "Hg6 mi
10:30 PM43 °FQuite cool.12 mph93%29.45 "HgN/A
10:00 PM45 °FQuite cool.10 mph87%29.45 "HgN/A
9:30 PM46 °FCool.12 mph82%29.45 "HgN/A
9:00 PM46 °FCool.13 mph87%29.45 "HgN/A
8:30 PM46 °FCool.12 mph82%29.45 "HgN/A
8:00 PM46 °FCool.13 mph87%29.42 "HgN/A
7:30 PM46 °FCool.14 mph87%29.42 "HgN/A
7:00 PM48 °FPartly cloudy.15 mph82%29.42 "HgN/A
6:30 PM48 °FPassing clouds.12 mph82%29.39 "HgN/A
6:00 PM50 °FPartly sunny.18 mph76%29.39 "HgN/A
5:30 PM50 °FScattered clouds.20 mph76%29.36 "HgN/A
5:00 PM50 °FPassing clouds.20 mph76%29.36 "HgN/A
4:30 PM50 °FPartly sunny.17 mph76%29.36 "HgN/A
4:00 PM54 °FBroken clouds.21 mph67%29.33 "HgN/A
3:30 PM54 °FPartly sunny.17 mph67%29.33 "HgN/A
3:00 PM52 °FBroken clouds.21 mph67%29.33 "HgN/A
2:30 PM52 °FPartly sunny.21 mph72%29.30 "HgN/A
2:00 PM54 °FMostly cloudy.21 mph63%29.30 "HgN/A
1:30 PM54 °FMostly cloudy.21 mph67%29.30 "HgN/A
1:00 PM54 °FPartly sunny.18 mph72%29.30 "HgN/A
12:30 PM52 °FBroken clouds.24 mph72%29.30 "HgN/A
12:00 PM52 °FBroken clouds.20 mph77%29.30 "HgN/A
11:30 AM50 °FPartly sunny.20 mph82%29.30 "HgN/A
11:00 AM50 °FMostly cloudy.16 mph94%29.30 "HgN/A
10:30 AM48 °FBroken clouds.14 mph94%29.30 "HgN/A
10:00 AM46 °FPartly sunny.16 mph93%29.30 "HgN/A
9:30 AM46 °FBroken clouds.13 mph93%29.27 "HgN/A
9:00 AM46 °FLight rain. Broken clouds.14 mph93%29.30 "HgN/A
8:30 AM46 °FHeavy rain. Broken clouds.13 mph93%29.33 "Hg4 mi
8:00 AM46 °FLight rain. Partly cloudy.15 mph93%29.33 "HgN/A
7:30 AM45 °FRain. Low clouds.13 mph100%29.33 "Hg6 mi
7:00 AM45 °FLight rain. Low clouds.12 mph93%29.36 "HgN/A
6:30 AM45 °FLight rain. Mostly cloudy.12 mph93%29.39 "HgN/A
6:00 AM43 °FLight rain. Low clouds.10 mph100%29.39 "Hg5 mi
Weather by CustomWeather, © 2016

See weather overviewHow to use our weather pages